Regional Weather Roundup
Issued by NWS

Home | Current Version | Previous Version | Text Only | Print | Product List | Glossary Off
Versions: 1 2 3 4 5 6 7 8 9 10 11 12 13 14 15 16 17 18 19 20 21 22 23 24 25 26 27 28 29 30 31 32 33 34 35 36 37 38 39 40 41 42 43 44 45 46 47 48 49 50

000
ASUS43 KMKX 070221
RWRWI

WISCONSIN REGIONAL WEATHER ROUNDUP
NATIONAL WEATHER SERVICE MILWAUKEE/SULLIVAN WI
900 PM CDT MON JUL 06 2015

NOTE: "FAIR" INDICATES FEW OR NO CLOUDS BELOW 12,000 FEET WITH NO
SIGNIFICANT WEATHER AND/OR OBSTRUCTIONS TO VISIBILITY.

WIZ001-002-006>008-014>016-023>028-070300-
NORTHWEST WISCONSIN

CITY           SKY/WX    TMP DP  RH WIND       PRES   REMARKS
SUPERIOR ARPT  CLOUDY    60  48  65 NW13      29.99R
ASHLAND        CLOUDY    61  58  90 N6        29.96R FOG
HAYWARD        CLOUDY    63  56  78 N5        29.97R HAZE
SIREN          PTCLDY    62  48  60 N13G20    30.00R
CUMBERLAND     CLOUDY    63  57  82 NW8       29.98R HAZE
RICE LAKE      MOCLDY    63  58  83 CALM      29.98R HAZE
CHETEK         MOCLDY    63  59  86 N3        29.96R FOG
LADYSMITH        N/A     59  56  89 N3        29.98R FOG
EAU CLAIRE     CLOUDY    60  57  89 N3        29.94S FOG
MENOMONIE      CLEAR     64  58  83 NW3       29.96R HAZE
NEW RICHMOND   PTCLDY    63  54  72 NW10      29.99R
OSCEOLA        PTCLDY    63  52  65 NW6       30.02R
$$

WIZ003>005-009-010-017-018-070300-
NORTH CENTRAL WISCONSIN

CITY           SKY/WX    TMP DP  RH WIND       PRES   REMARKS
MANITOWISH WTR CLOUDY    55  55 100 NW6       29.94R FOG
ARBOR VITAE    CLEAR     58  56  92 N8        29.93S FOG
WOODRUFF       CLEAR     58  56  92 N8        29.93S FOG
RHINELANDER    CLOUDY    58  55  90 N8        29.93R FOG
EAGLE RIVER    CLOUDY    57  55  94 N10       29.92R FOG
LAND O LAKES   CLOUDY    58  56  93 N9        29.94R FOG
PHILLIPS       MOCLDY    57  56  97 NW5       29.96R FOG
TOMAHAWK       CLOUDY    58  55  89 NW6       29.94R FOG
MEDFORD        CLOUDY    59  56  91 NW10      29.94R FOG
MERRILL        CLOUDY    60  57  91 N8        29.93R FOG
$$

WIZ029-030-035-036-043>047-070300-
CENTRAL WISCONSIN

CITY           SKY/WX    TMP DP  RH WIND       PRES   REMARKS
WAUSAU         CLOUDY    62  56  80 N8        29.90R HAZE
MOSINEE        CLOUDY    61  57  88 N10       29.91R FOG
MARSHFIELD     CLOUDY    61  54  77 N12       29.92R HAZE
STEVENS POINT  CLOUDY    60  57  90 N8        29.89R
WAUPACA        CLOUDY    65  63  92 NW9       29.85R
WAUTOMA        CLOUDY    64  64 100 N10       29.86R
WISC RAPIDS    CLOUDY    64  56  75 N14       29.90R
CAMP DOUGLAS   MOCLDY    63  63 100 NW10G17   29.89R
$$

WIZ011>013-019>022-031-037>040-048>050-070300-
NORTHEAST WISCONSIN

CITY           SKY/WX    TMP DP  RH WIND       PRES   REMARKS
ANTIGO         CLOUDY    58  56  91 N12       29.90R FOG
SHAWANO        CLOUDY    65  60  85 N6        29.86R
OCONTO         CLOUDY    61  61 100 N13G21    29.82R
STURGEON BAY   CLOUDY    70  64  83 N17       29.81R
GREEN BAY      LGT RAIN  65  62  90 N15G22    29.84R
MANITOWOC      CLOUDY    74  71  91 MISG      29.80R
APPLETON       LGT RAIN  64  64 100 NW15G23   29.84R FOG
CLINTONVILLE   CLOUDY    63  59  88 N7G20     29.85R
OSHKOSH        CLOUDY    74  68  81 SW6       29.80R
$$

WIZ032>034-041-042-053>061-070300-
SOUTHWEST WISCONSIN

CITY           SKY/WX    TMP DP  RH WIND       PRES   REMARKS
LA CROSSE      CLOUDY    65  57  75 N13       29.93R HAZE
SPARTA         PTCLDY    63  56  79 N6        29.93R HAZE
VIROQUA        CLOUDY    63  59  87 N12       29.92R
BOSCOBEL       CLOUDY    67  61  81 VRB6      29.90R
PRAIRIE DU CHI CLOUDY    67  57  71 N14G20    29.90R
PLATTEVILLE    CLOUDY    69  68  95 NW13      29.86R
$$

WIZ056-057-062-063-064-067-068-070300-
SOUTH CENTRAL WISCONSIN

CITY           SKY/WX    TMP DP  RH WIND       PRES   REMARKS
REEDSBURG      CLOUDY    64  62  95 NW13G21   29.87R
BARABOO/DELLS  LGT RAIN  64  62  92 NW8G16    29.86R
LONE ROCK      CLOUDY    68  64  87 NW17G25   29.86R
MINERAL POINT  CLOUDY    68  66  94 NW12G20   29.87R
MADISON        LGT RAIN  75  71  87 CALM      29.81S FOG
MIDDLETON      CLOUDY    75  73  92 SW3       29.82F
WATERTOWN      CLOUDY    74  74 100 CALM      29.82R
MONROE         CLOUDY    73  72  94 S10       29.83S
JANESVILLE     CLOUDY    77  75  94 CALM      29.83R
$$

WIZ051-052-058>065-066-070>072-070300-
SOUTHEAST WISCONSIN

CITY           SKY/WX    TMP DP  RH WIND       PRES   REMARKS
MILWAUKEE      LGT RAIN  74  71  91 W5        29.82S
WAUKESHA       CLOUDY    73  70  88 CALM      29.83S
MILWAUKEE/TIMM MOCLDY    77  66  69 SW10      29.82S
RACINE         CLOUDY    73  69  87 SW3       29.84R
BURLINGTON     MOCLDY    72  70  94 SW5       29.84R
KENOSHA        MOCLDY    75  70  84 SW8       29.83R
FOND DU LAC    CLOUDY    75  72  90 W5        29.81R
SHEBOYGAN      CLOUDY    75  69  81 SW6       29.80R
WEST BEND      CLOUDY    73  68  83 SW3       29.82R
JUNEAU         DRIZZLE   73  70  89 S5        29.83S
$$

LSZ147-162-070300-
LAKE SUPERIOR

STATION/POSITION TIME  TEMP    WIND        PRES    WAVE
                       AIR SEA DIR/SP/G            HT/PER
                 (UTC) (F)     (DEG/KT/KT) (MB)    (FT/S)
W MID LAKE BUOY  0150   48 39  280/  6/  6 1013.4R   0
DEVILS ISLAND    0200   61     330/ 14/ 16 1014.3R
PORT WING        0100   63     350/ 13/ 16 1013.9S
SAXON HARBOR     0140   60        CALM     1013.5R
$$

LMZ867-665-643>646-070300-
LAKE MICHIGAN

STATION/POSITION TIME  TEMP    WIND        PRES    WAVE
                       AIR SEA DIR/SP/G            HT/PER
                 (UTC) (F)     (DEG/KT/KT) (MB)    (FT/S)
CHAMBERS ISLAND  0100   63      10/ 15/ 19 1007.8S
S GREEN BAY BUOY 0130   73 70  230/ 16/ 21 1009.3R
N MID LAKE BUOY  0150   58 57   10/ 16/ 19 1008.5R   4/ 6
NORTHPORT PIER   0200   60      10/ 13/ 17 1009.5R
SISTER BAY       0029   64     140/  7/  9   N/A
ALGOMA LAKESHORE 0141          210/  3/  4   N/A
KEWAUNEE LAKESHO 0100   61     200/  6/  8 1007.5F
SHEBOYGAN LAKESH 0200   72     190/  8/  8 1009.3R
PORT WASHINGTON  0100   69     200/  5/  9 1009.8F
ATWATER BUOY     0200   68 59  180/  8/  8 1011.0S
MILWAUKEE LAKESH 0200   75     240/  7/  7   N/A
KENOSHA   LAKESH 0200   74     220/  5/  6 1009.8R
$$

TC  - TEMPERATURE IN CELSIUS
VSB - VISIBILITY IN STATUTE MILES
WCI - WIND CHILL INDEX
HX  - HEAT INDEX




USA.gov is the U.S. government's official web portal to all federal, state and local government web resources and services.